X38 YPJT-YMUL

Flight info

Callsign X38
Flight time 0h 15m
Altitude 3500
Route YGB DCT TOML
Aircraft DA42/L-SDFGRY/C

Departure

Time 2026-04-26 05:47
Airport Perth Jandakot Airport (YPJT)

Arrival

Time 2026-04-26 06:02
Airport Murray Field (YMUL)
Time Latitude Longitude Altitude Speed Heading
2026-04-26 05:36 -32.09834 115.87273 95 ft 0 kts 122°
2026-04-26 05:45 -32.09819 115.87287 95 ft 3 kts 39°
2026-04-26 05:45 -32.09820 115.87310 95 ft 5 kts 110°
2026-04-26 05:45 -32.09829 115.87371 95 ft 9 kts 77°
2026-04-26 05:45 -32.09844 115.87399 95 ft 5 kts 158°
2026-04-26 05:46 -32.09903 115.87422 95 ft 9 kts 160°
2026-04-26 05:46 -32.09935 115.87437 95 ft 4 kts 154°
2026-04-26 05:46 -32.09966 115.87451 94 ft 7 kts 153°
2026-04-26 05:46 -32.09975 115.87496 94 ft 8 kts 52°
2026-04-26 05:47 -32.09817 115.87753 95 ft 68 kts 55°
2026-04-26 05:47 -32.09479 115.88306 264 ft 90 kts 59°
2026-04-26 05:47 -32.09132 115.88938 589 ft 93 kts 57°
2026-04-26 05:47 -32.08628 115.89369 917 ft 96 kts
2026-04-26 05:48 -32.08058 115.88929 1068 ft 112 kts 308°
2026-04-26 05:48 -32.07647 115.88092 1126 ft 127 kts 268°
2026-04-26 05:48 -32.08165 115.87287 1210 ft 134 kts 209°
2026-04-26 05:48 -32.08851 115.86497 1219 ft 147 kts 229°
2026-04-26 05:49 -32.09507 115.85590 1280 ft 144 kts 227°
2026-04-26 05:49 -32.11081 115.84011 1168 ft 155 kts 211°
2026-04-26 05:49 -32.12037 115.83476 1113 ft 153 kts 189°
2026-04-26 05:50 -32.13070 115.83358 1143 ft 141 kts 181°
2026-04-26 05:50 -32.13985 115.83304 1289 ft 126 kts 180°
2026-04-26 05:50 -32.14872 115.83278 1387 ft 130 kts 178°
2026-04-26 05:50 -32.15793 115.83273 1507 ft 132 kts 178°
2026-04-26 05:51 -32.16707 115.83249 1626 ft 133 kts 178°
2026-04-26 05:51 -32.17603 115.83221 1841 ft 128 kts 178°
2026-04-26 05:51 -32.18473 115.83184 2128 ft 125 kts 179°
2026-04-26 05:51 -32.19372 115.83221 2185 ft 132 kts 171°
2026-04-26 05:52 -32.20295 115.83254 2316 ft 132 kts 176°
2026-04-26 05:52 -32.21178 115.83243 2561 ft 126 kts 176°
2026-04-26 05:52 -32.22106 115.83276 2578 ft 139 kts 176°
2026-04-26 05:52 -32.23049 115.83289 2805 ft 134 kts 176°
2026-04-26 05:53 -32.23977 115.83323 3088 ft 134 kts 173°
2026-04-26 05:53 -32.24913 115.83380 3354 ft 135 kts 175°
2026-04-26 05:53 -32.25850 115.83399 3493 ft 137 kts 177°
2026-04-26 05:53 -32.26845 115.83399 3504 ft 149 kts 178°
2026-04-26 05:54 -32.27913 115.83388 3501 ft 156 kts 178°
2026-04-26 05:54 -32.29032 115.83378 3498 ft 164 kts 178°
2026-04-26 05:54 -32.30188 115.83369 3486 ft 166 kts 178°
2026-04-26 05:54 -32.31302 115.83314 3501 ft 157 kts 186°
2026-04-26 05:55 -32.32357 115.83343 3273 ft 152 kts 144°
2026-04-26 05:55 -32.33254 115.83819 3309 ft 145 kts 174°
2026-04-26 05:55 -32.34255 115.83566 3190 ft 147 kts 195°
2026-04-26 05:55 -32.35231 115.83358 3096 ft 137 kts 184°
2026-04-26 05:56 -32.36196 115.83306 2938 ft 139 kts 177°
2026-04-26 05:56 -32.37144 115.83307 2821 ft 132 kts 176°
2026-04-26 05:56 -32.38079 115.83306 2650 ft 138 kts 177°
2026-04-26 05:56 -32.39051 115.83295 2482 ft 142 kts 178°
2026-04-26 05:57 -32.40046 115.83284 2302 ft 143 kts 178°
2026-04-26 05:57 -32.41017 115.83278 2129 ft 141 kts 178°
2026-04-26 05:57 -32.41998 115.83268 1962 ft 142 kts 179°
2026-04-26 05:57 -32.42985 115.83255 1786 ft 142 kts 179°
2026-04-26 05:58 -32.43970 115.83252 1629 ft 140 kts 178°
2026-04-26 05:58 -32.44942 115.83173 1456 ft 139 kts 186°
2026-04-26 05:58 -32.45888 115.83003 1349 ft 136 kts 188°
2026-04-26 05:58 -32.46832 115.82817 1134 ft 138 kts 189°
2026-04-26 05:59 -32.47763 115.82608 1023 ft 134 kts 188°
2026-04-26 05:59 -32.48651 115.82567 978 ft 125 kts 163°
2026-04-26 05:59 -32.49448 115.82945 906 ft 120 kts 149°
2026-04-26 05:59 -32.50140 115.83406 967 ft 108 kts 147°
2026-04-26 06:00 -32.50723 115.83803 971 ft 93 kts 146°
2026-04-26 06:00 -32.51260 115.84164 1030 ft 85 kts 146°
2026-04-26 06:00 -32.51858 115.84245 1096 ft 97 kts 188°
2026-04-26 06:00 -32.52485 115.83927 1151 ft 98 kts 218°
2026-04-26 06:01 -32.52977 115.83331 1133 ft 98 kts 231°
2026-04-26 06:01 -32.53092 115.82550 1198 ft 100 kts 291°
2026-04-26 06:01 -32.52747 115.81833 1249 ft 98 kts 314°
2026-04-26 06:01 -32.52129 115.81718 1094 ft 100 kts 36°
2026-04-26 06:02 -32.51644 115.82252 669 ft 89 kts 53°
2026-04-26 06:02 -32.51243 115.82782 332 ft 87 kts 45°
2026-04-26 06:02 -32.50812 115.83295 45 ft 79 kts 47°
2026-04-26 06:02 -32.50553 115.83604 40 ft 24 kts 39°
2026-04-26 06:03 -32.50487 115.83607 39 ft 11 kts 316°
2026-04-26 06:03 -32.50493 115.83540 38 ft 11 kts 225°
2026-04-26 06:03 -32.50545 115.83476 38 ft 11 kts 225°
2026-04-26 06:03 -32.50615 115.83394 39 ft 22 kts 224°
2026-04-26 06:04 -32.50688 115.83334 38 ft 11 kts 148°
2026-04-26 06:04 -32.50706 115.83356 37 ft 0 kts 139°
2026-04-26 06:04 -32.50728 115.83382 38 ft 8 kts 119°
2026-04-26 06:05 -32.50660 115.83476 40 ft 43 kts 44°
2026-04-26 06:05 -32.50322 115.83877 113 ft 83 kts 44°
2026-04-26 06:05 -32.49874 115.84360 426 ft 87 kts 44°
2026-04-26 06:05 -32.49327 115.84628 688 ft 94 kts 346°
2026-04-26 06:06 -32.48770 115.84130 862 ft 107 kts 319°
2026-04-26 06:06 -32.48265 115.83453 1083 ft 112 kts 291°
2026-04-26 06:06 -32.48428 115.82582 1308 ft 115 kts 227°
2026-04-26 06:06 -32.48983 115.81865 1482 ft 123 kts 225°
2026-04-26 06:07 -32.49580 115.81126 1691 ft 128 kts 224°
2026-04-26 06:07 -32.50229 115.80348 1880 ft 130 kts 224°
2026-04-26 06:07 -32.50857 115.79584 2125 ft 130 kts 224°
2026-04-26 06:07 -32.51494 115.78810 2381 ft 132 kts 224°
2026-04-26 06:08 -32.52141 115.78026 2481 ft 142 kts 224°
2026-04-26 06:08 -32.52858 115.77160 2488 ft 151 kts 224°
2026-04-26 06:08 -32.53601 115.76256 2492 ft 154 kts 224°
2026-04-26 06:08 -32.54358 115.75338 2494 ft 157 kts 224°
2026-04-26 06:09 -32.55128 115.74410 2487 ft 158 kts 224°
2026-04-26 06:09 -32.55899 115.73482 2487 ft 159 kts 224°
2026-04-26 06:09 -32.56676 115.72558 2500 ft 160 kts 224°
2026-04-26 06:09 -32.57198 115.71936 2485 ft 158 kts 224°
2026-04-26 06:10 -32.58223 115.70709 2491 ft 156 kts 224°
2026-04-26 06:10 -32.58725 115.70106 2493 ft 155 kts 224°
2026-04-26 06:10 -32.59739 115.68880 2492 ft 155 kts 224°
2026-04-26 06:10 -32.60238 115.68276 2490 ft 155 kts 224°
2026-04-26 06:11 -32.60991 115.67367 2497 ft 155 kts 224°
2026-04-26 06:11 -32.61749 115.66456 2496 ft 155 kts 224°
2026-04-26 06:11 -32.62509 115.65547 2495 ft 155 kts 224°
2026-04-26 06:11 -32.63266 115.64644 2495 ft 154 kts 224°
2026-04-26 06:12 -32.64043 115.63723 2495 ft 163 kts 224°
2026-04-26 06:12 -32.64906 115.62861 2491 ft 159 kts 206°
2026-04-26 06:12 -32.65920 115.62358 2495 ft 156 kts 194°
2026-04-26 06:12 -32.66967 115.62034 2502 ft 155 kts 191°
2026-04-26 06:13 -32.68024 115.61725 2500 ft 158 kts 191°
2026-04-26 06:13 -32.69112 115.61561 2501 ft 159 kts 176°
2026-04-26 06:13 -32.70204 115.61707 2504 ft 157 kts 168°
2026-04-26 06:13 -32.71288 115.61924 2503 ft 159 kts 167°
2026-04-26 06:14 -32.72387 115.62154 2506 ft 160 kts 167°
2026-04-26 06:14 -32.73474 115.62388 2499 ft 157 kts 167°
2026-04-26 06:14 -32.74543 115.62611 2503 ft 156 kts 167°
2026-04-26 06:14 -32.75602 115.62829 2495 ft 157 kts 167°
2026-04-26 06:15 -32.76684 115.63052 2503 ft 159 kts 167°
2026-04-26 06:15 -32.77781 115.63275 2503 ft 160 kts 167°
2026-04-26 06:15 -32.78889 115.63499 2496 ft 162 kts 167°
2026-04-26 06:15 -32.79994 115.63718 2512 ft 162 kts 167°
2026-04-26 06:16 -32.81112 115.63944 2500 ft 162 kts 167°
2026-04-26 06:16 -32.82217 115.64177 2493 ft 160 kts 167°
2026-04-26 06:16 -32.83303 115.64423 2490 ft 158 kts 167°
2026-04-26 06:16 -32.84372 115.64665 2493 ft 155 kts 167°
2026-04-26 06:17 -32.85432 115.64907 2497 ft 155 kts 167°
2026-04-26 06:17 -32.86488 115.65148 2499 ft 157 kts 167°
2026-04-26 06:17 -32.87567 115.65392 2500 ft 158 kts 167°
2026-04-26 06:17 -32.88647 115.65633 2500 ft 158 kts 167°
2026-04-26 06:18 -32.89732 115.65874 2497 ft 158 kts 167°
2026-04-26 06:18 -32.90817 115.66113 2499 ft 159 kts 167°
2026-04-26 06:18 -32.91906 115.66354 2498 ft 159 kts 167°
2026-04-26 06:18 -32.92990 115.66597 2494 ft 158 kts 167°
2026-04-26 06:19 -32.94071 115.66842 2501 ft 158 kts 167°
2026-04-26 06:19 -32.95152 115.67086 2507 ft 158 kts 167°
2026-04-26 06:19 -32.96237 115.67334 2494 ft 158 kts 167°
2026-04-26 06:19 -32.97309 115.67581 2502 ft 157 kts 167°
2026-04-26 06:20 -32.98372 115.67824 2505 ft 153 kts 167°
2026-04-26 06:20 -32.99422 115.68065 2500 ft 155 kts 167°
2026-04-26 06:20 -33.00466 115.68308 2514 ft 152 kts 167°
2026-04-26 06:20 -33.01511 115.68556 2503 ft 156 kts 166°
2026-04-26 06:21 -33.02569 115.68811 2505 ft 154 kts 167°
2026-04-26 06:21 -33.03620 115.69047 2505 ft 154 kts 167°
2026-04-26 06:21 -33.04670 115.69255 2499 ft 152 kts 170°
2026-04-26 06:21 -33.05718 115.69403 2498 ft 151 kts 173°
2026-04-26 06:22 -33.06771 115.69476 2503 ft 152 kts 175°
2026-04-26 06:22 -33.07830 115.69522 2509 ft 153 kts 176°
2026-04-26 06:22 -33.08906 115.69571 2505 ft 156 kts 176°
2026-04-26 06:22 -33.09993 115.69574 2505 ft 157 kts 179°
2026-04-26 06:23 -33.11085 115.69553 2508 ft 157 kts 179°
2026-04-26 06:23 -33.12184 115.69532 2509 ft 159 kts 179°
2026-04-26 06:23 -33.13290 115.69511 2510 ft 159 kts 179°
2026-04-26 06:23 -33.14398 115.69487 2506 ft 159 kts 178°
2026-04-26 06:24 -33.15501 115.69463 2507 ft 159 kts 179°
2026-04-26 06:24 -33.16602 115.69440 2505 ft 158 kts 179°
2026-04-26 06:24 -33.17698 115.69421 2505 ft 157 kts 179°
2026-04-26 06:24 -33.18783 115.69397 2505 ft 155 kts 179°
2026-04-26 06:25 -33.19859 115.69374 2499 ft 154 kts 179°
2026-04-26 06:25 -33.20930 115.69350 2503 ft 154 kts 179°
2026-04-26 06:25 -33.21991 115.69329 2504 ft 155 kts 179°
2026-04-26 06:25 -33.23071 115.69305 2505 ft 155 kts 179°
2026-04-26 06:26 -33.24150 115.69272 2507 ft 155 kts 181°
2026-04-26 06:26 -33.25210 115.69008 2499 ft 156 kts 198°
2026-04-26 06:26 -33.26209 115.68501 2509 ft 157 kts 202°
2026-04-26 06:26 -33.27203 115.67963 2502 ft 156 kts 202°
2026-04-26 06:27 -33.28188 115.67425 2500 ft 155 kts 203°
2026-04-26 06:27 -33.29162 115.66889 2501 ft 153 kts 203°
2026-04-26 06:27 -33.30131 115.66358 2502 ft 153 kts 203°
2026-04-26 06:27 -33.31103 115.65828 2500 ft 153 kts 202°
2026-04-26 06:28 -33.32072 115.65300 2503 ft 153 kts 203°
2026-04-26 06:28 -33.33037 115.64770 2505 ft 153 kts 202°
2026-04-26 06:28 -33.34006 115.64236 2503 ft 154 kts 203°
2026-04-26 06:28 -33.34975 115.63710 2504 ft 156 kts 202°
2026-04-26 06:29 -33.35965 115.63162 2506 ft 158 kts 203°
2026-04-26 06:29 -33.36968 115.62607 2510 ft 160 kts 202°
2026-04-26 06:29 -33.37985 115.62044 2500 ft 161 kts 202°
2026-04-26 06:29 -33.38997 115.61485 2506 ft 159 kts 203°
2026-04-26 06:30 -33.40006 115.60928 2509 ft 161 kts 203°
2026-04-26 06:30 -33.41030 115.60373 2506 ft 162 kts 203°
2026-04-26 06:30 -33.42058 115.59815 2508 ft 162 kts 202°
2026-04-26 06:30 -33.43085 115.59255 2511 ft 163 kts 202°
2026-04-26 06:31 -33.44122 115.58691 2506 ft 164 kts 202°
2026-04-26 06:31 -33.45160 115.58122 2505 ft 164 kts 203°
2026-04-26 06:31 -33.46196 115.57551 2506 ft 164 kts 203°
2026-04-26 06:31 -33.47236 115.56982 2504 ft 164 kts 202°
2026-04-26 06:32 -33.48235 115.56338 2502 ft 162 kts 211°
2026-04-26 06:32 -33.49165 115.55594 2493 ft 160 kts 212°
2026-04-26 06:32 -33.50080 115.54846 2491 ft 159 kts 212°
2026-04-26 06:32 -33.50990 115.54099 2496 ft 159 kts 213°
2026-04-26 06:33 -33.51899 115.53353 2497 ft 158 kts 212°
2026-04-26 06:33 -33.52805 115.52611 2496 ft 158 kts 212°
2026-04-26 06:33 -33.53711 115.51867 2496 ft 157 kts 212°
2026-04-26 06:33 -33.54597 115.51103 2489 ft 157 kts 221°
2026-04-26 06:34 -33.55331 115.50147 2499 ft 156 kts 228°
2026-04-26 06:34 -33.56035 115.49159 2498 ft 155 kts 229°
2026-04-26 06:34 -33.56726 115.48185 2500 ft 156 kts 229°
2026-04-26 06:34 -33.57433 115.47190 2500 ft 157 kts 229°
2026-04-26 06:35 -33.58141 115.46194 2501 ft 157 kts 229°
2026-04-26 06:35 -33.58849 115.45198 2502 ft 157 kts 229°
2026-04-26 06:35 -33.59555 115.44195 2504 ft 158 kts 229°
2026-04-26 06:35 -33.60242 115.43218 2496 ft 157 kts 229°
2026-04-26 06:36 -33.60964 115.42194 2495 ft 156 kts 229°
2026-04-26 06:36 -33.61666 115.41203 2494 ft 156 kts 229°
2026-04-26 06:36 -33.62369 115.40215 2493 ft 155 kts 228°
2026-04-26 06:36 -33.63068 115.39230 2496 ft 155 kts 229°
2026-04-26 06:37 -33.63769 115.38245 2499 ft 156 kts 229°
2026-04-26 06:37 -33.64487 115.37273 2487 ft 156 kts 218°
2026-04-26 06:37 -33.65481 115.36858 2417 ft 154 kts 171°
2026-04-26 06:37 -33.66426 115.37394 2364 ft 151 kts 141°
2026-04-26 06:38 -33.67157 115.38260 2372 ft 145 kts 129°
2026-04-26 06:38 -33.67820 115.39172 2192 ft 148 kts 127°
2026-04-26 06:38 -33.68468 115.40108 2031 ft 143 kts 130°
2026-04-26 06:38 -33.69123 115.40982 1844 ft 140 kts 130°
2026-04-26 06:39 -33.69769 115.41850 1646 ft 138 kts 130°
2026-04-26 06:39 -33.70152 115.42819 1577 ft 129 kts 88°
2026-04-26 06:39 -33.69632 115.43619 1397 ft 132 kts 14°
2026-04-26 06:39 -33.68837 115.43216 1229 ft 137 kts 300°
2026-04-26 06:40 -33.68603 115.42060 970 ft 142 kts 276°
2026-04-26 06:40 -33.68492 115.40936 986 ft 130 kts 277°
2026-04-26 06:40 -33.68327 115.39920 1009 ft 119 kts 282°
2026-04-26 06:40 -33.68160 115.38972 1001 ft 114 kts 281°
2026-04-26 06:41 -33.68067 115.38053 1019 ft 104 kts 257°
2026-04-26 06:41 -33.68521 115.37414 976 ft 102 kts 204°
2026-04-26 06:41 -33.69136 115.37039 1004 ft 98 kts 203°
2026-04-26 06:41 -33.69741 115.36634 998 ft 101 kts 207°
2026-04-26 06:42 -33.70363 115.36229 1015 ft 101 kts 200°
2026-04-26 06:42 -33.71029 115.36246 944 ft 94 kts 147°
2026-04-26 06:42 -33.71380 115.36874 861 ft 93 kts 116°
2026-04-26 06:42 -33.71544 115.37591 742 ft 91 kts 76°
2026-04-26 06:43 -33.71252 115.38260 628 ft 91 kts 63°
2026-04-26 06:43 -33.70918 115.38903 530 ft 92 kts 46°
2026-04-26 06:43 -33.70336 115.39285 328 ft 94 kts 27°
2026-04-26 06:43 -33.69761 115.39617 133 ft 90 kts 27°
2026-04-26 06:44 -33.69258 115.39901 55 ft 62 kts 27°
2026-04-26 06:44 -33.69040 115.40027 55 ft 18 kts
2026-04-26 06:44 -33.68970 115.39929 56 ft 16 kts 294°
2026-04-26 06:44 -33.68916 115.39829 56 ft 13 kts
2026-04-26 06:45 -33.68844 115.39885 56 ft 12 kts 25°
2026-04-26 06:45 -33.68767 115.39928 53 ft 12 kts 26°
2026-04-26 06:45 -33.68711 115.39940 55 ft 6 kts 291°
2026-04-26 06:45 -33.68682 115.39913 56 ft 5 kts 27°
2026-04-26 06:46 -33.68673 115.39917 56 ft 0 kts 21°
2026-04-26 06:53 -33.68663 115.39926 56 ft 6 kts 63°
2026-04-26 06:53 -33.68655 115.39991 53 ft 9 kts 71°
2026-04-26 06:54 -33.68673 115.40070 56 ft 11 kts 116°
2026-04-26 06:54 -33.68707 115.40157 53 ft 12 kts 115°
2026-04-26 06:54 -33.68695 115.40229 55 ft 11 kts 27°
2026-04-26 06:54 -33.68484 115.40349 55 ft 65 kts 26°
2026-04-26 06:55 -33.67947 115.40643 149 ft 95 kts 24°
2026-04-26 06:55 -33.67328 115.40976 468 ft 99 kts 25°
2026-04-26 06:55 -33.66672 115.41156 770 ft 99 kts 345°
2026-04-26 06:55 -33.66216 115.40576 1007 ft 103 kts 288°
2026-04-26 06:56 -33.66009 115.39718 1220 ft 110 kts 283°
2026-04-26 06:56 -33.65832 115.38789 1427 ft 117 kts 283°
2026-04-26 06:56 -33.65653 115.37855 1755 ft 112 kts 283°
2026-04-26 06:56 -33.65480 115.36940 2019 ft 114 kts 283°
2026-04-26 06:57 -33.65308 115.36011 2279 ft 114 kts 283°
2026-04-26 06:57 -33.65139 115.35074 2506 ft 120 kts 283°
2026-04-26 06:57 -33.64951 115.34030 2507 ft 135 kts 284°
2026-04-26 06:57 -33.64829 115.32858 2509 ft 144 kts 275°
2026-04-26 06:58 -33.64808 115.32050 2504 ft 148 kts 273°
2026-04-26 06:58 -33.64785 115.30800 2517 ft 151 kts 272°
2026-04-26 06:58 -33.64752 115.29114 2519 ft 154 kts 272°
2026-04-26 06:58 -33.64724 115.27827 2520 ft 155 kts 272°
2026-04-26 06:59 -33.64704 115.26954 2518 ft 155 kts 272°
2026-04-26 06:59 -33.64663 115.25243 2522 ft 155 kts 272°
2026-04-26 06:59 -33.64642 115.24369 2522 ft 156 kts 272°
2026-04-26 06:59 -33.64609 115.23068 2517 ft 156 kts 272°
2026-04-26 07:00 -33.64576 115.21764 2516 ft 156 kts 272°
2026-04-26 07:00 -33.64543 115.20461 2516 ft 156 kts 272°
2026-04-26 07:00 -33.64484 115.19183 2513 ft 155 kts 281°
2026-04-26 07:00 -33.64143 115.17958 2515 ft 155 kts 295°
2026-04-26 07:01 -33.63721 115.16770 2517 ft 155 kts 295°
2026-04-26 07:01 -33.63289 115.15582 2519 ft 156 kts 295°
2026-04-26 07:01 -33.62856 115.14383 2519 ft 157 kts 295°
2026-04-26 07:01 -33.62416 115.13177 2522 ft 158 kts 295°
2026-04-26 07:02 -33.61959 115.11976 2517 ft 158 kts 304°
2026-04-26 07:02 -33.61242 115.11000 2517 ft 155 kts 323°
2026-04-26 07:02 -33.60334 115.10328 2520 ft 153 kts 334°
2026-04-26 07:02 -33.59393 115.09726 2521 ft 153 kts 334°
2026-04-26 07:03 -33.58449 115.09129 2526 ft 153 kts 334°
2026-04-26 07:03 -33.57470 115.08659 2520 ft 151 kts 348°
2026-04-26 07:03 -33.56461 115.08348 2513 ft 151 kts 340°
2026-04-26 07:03 -33.55671 115.07536 2509 ft 155 kts 301°
2026-04-26 07:04 -33.55459 115.06279 2516 ft 157 kts 269°
2026-04-26 07:04 -33.55565 115.04977 2513 ft 157 kts 265°
2026-04-26 07:04 -33.55698 115.03684 2518 ft 157 kts 264°
2026-04-26 07:04 -33.55850 115.02409 2509 ft 157 kts 255°
2026-04-26 07:05 -33.56467 115.01345 2517 ft 158 kts 215°
2026-04-26 07:05 -33.57490 115.00976 2522 ft 154 kts 180°
2026-04-26 07:05 -33.58560 115.00946 2522 ft 154 kts 178°
2026-04-26 07:05 -33.59628 115.00949 2523 ft 153 kts 178°
2026-04-26 07:06 -33.60694 115.00962 2520 ft 152 kts 177°
2026-04-26 07:06 -33.61753 115.00976 2520 ft 152 kts 177°
2026-04-26 07:06 -33.62812 115.00989 2519 ft 152 kts 178°
2026-04-26 07:06 -33.63869 115.01002 2519 ft 152 kts 177°
2026-04-26 07:07 -33.64923 115.01020 2517 ft 151 kts 178°
2026-04-26 07:07 -33.65974 115.01036 2519 ft 151 kts 177°
2026-04-26 07:07 -33.67012 115.01049 2517 ft 151 kts 178°
2026-04-26 07:07 -33.68081 115.01063 2515 ft 151 kts 178°
2026-04-26 07:08 -33.69118 115.01081 2518 ft 151 kts 178°
2026-04-26 07:08 -33.70170 115.01102 2521 ft 151 kts 177°
2026-04-26 07:08 -33.71228 115.01117 2520 ft 152 kts 177°
2026-04-26 07:08 -33.72288 115.01131 2521 ft 153 kts 177°
2026-04-26 07:09 -33.73351 115.01143 2516 ft 153 kts 177°
2026-04-26 07:09 -33.74412 115.01161 2517 ft 152 kts 177°
2026-04-26 07:09 -33.75464 115.01180 2517 ft 151 kts 177°
2026-04-26 07:09 -33.76517 115.01198 2518 ft 152 kts 177°
2026-04-26 07:10 -33.79701 115.01249 2504 ft 152 kts 177°
2026-04-26 07:11 -33.81819 115.01278 2506 ft 153 kts 177°
2026-04-26 07:11 -33.82880 115.01293 2501 ft 152 kts 177°
2026-04-26 07:11 -33.83934 115.01311 2502 ft 151 kts 177°
2026-04-26 07:11 -33.84985 115.01333 2497 ft 151 kts 177°
2026-04-26 07:12 -33.86019 115.01358 2473 ft 150 kts 178°
2026-04-26 07:12 -33.87070 115.01384 2346 ft 152 kts 177°
2026-04-26 07:12 -33.88137 115.01409 2221 ft 154 kts 177°
2026-04-26 07:12 -33.89207 115.01440 2090 ft 154 kts 177°
2026-04-26 07:13 -33.90272 115.01480 2002 ft 152 kts 177°
2026-04-26 07:13 -33.91308 115.01523 2003 ft 147 kts 177°
2026-04-26 07:13 -33.92325 115.01567 2001 ft 145 kts 177°
2026-04-26 07:13 -33.93331 115.01607 2000 ft 144 kts 177°
2026-04-26 07:14 -33.94329 115.01645 1999 ft 144 kts 177°
2026-04-26 07:14 -33.95326 115.01682 2002 ft 143 kts 177°
2026-04-26 07:14 -33.96297 115.01859 1990 ft 142 kts 152°
2026-04-26 07:14 -33.97112 115.02507 2005 ft 140 kts 142°
2026-04-26 07:15 -33.97926 115.03159 1938 ft 141 kts 148°
2026-04-26 07:15 -33.98774 115.03778 1812 ft 142 kts 147°
2026-04-26 07:15 -33.99699 115.04205 1627 ft 133 kts 162°
2026-04-26 07:15 -34.00454 115.04468 1419 ft 111 kts 164°
2026-04-26 07:16 -34.01207 115.04714 1120 ft 111 kts 162°
2026-04-26 07:16 -34.01877 115.05070 999 ft 99 kts 153°
2026-04-26 07:16 -34.02478 115.05433 993 ft 96 kts 152°
2026-04-26 07:16 -34.03077 115.05811 1010 ft 94 kts 152°
2026-04-26 07:17 -34.03678 115.06152 1029 ft 97 kts 153°
2026-04-26 07:17 -34.04268 115.06521 1081 ft 94 kts 144°
2026-04-26 07:17 -34.04426 115.07216 1024 ft 96 kts 56°
2026-04-26 07:17 -34.03812 115.07331 897 ft 102 kts 335°
2026-04-26 07:18 -34.03227 115.07007 633 ft 89 kts 344°
2026-04-26 07:18 -34.02658 115.06748 356 ft 84 kts 335°
2026-04-26 07:18 -34.02221 115.06519 284 ft 42 kts 338°
2026-04-26 07:18 -34.02172 115.06484 284 ft 9 kts 133°
2026-04-26 07:19 -34.02242 115.06533 284 ft 15 kts 156°
2026-04-26 07:19 -34.02351 115.06588 288 ft 18 kts 158°
2026-04-26 07:19 -34.02470 115.06655 296 ft 20 kts 156°
2026-04-26 07:19 -34.02600 115.06720 298 ft 17 kts 149°
2026-04-26 07:20 -34.02662 115.06755 298 ft 6 kts 220°
2026-04-26 07:20 -34.02658 115.06741 298 ft 0 kts 339°
2026-04-26 09:20 -34.02647 115.06738 303 ft 1 kts 345°
2026-04-26 09:20 -34.02612 115.06723 300 ft 12 kts 334°
2026-04-26 09:21 -34.02339 115.06579 288 ft 71 kts 338°
2026-04-26 09:21 -34.01778 115.06283 408 ft 96 kts 336°
2026-04-26 09:21 -34.01133 115.05979 702 ft 101 kts 339°
2026-04-26 09:21 -34.00427 115.05786 976 ft 107 kts
2026-04-26 09:22 -33.99695 115.05912 1315 ft 104 kts
2026-04-26 09:22 -33.99009 115.06054 1680 ft 98 kts 19°
2026-04-26 09:22 -33.98370 115.06316 1994 ft 96 kts 22°
2026-04-26 09:22 -33.97733 115.06581 2207 ft 97 kts 21°
2026-04-26 09:23 -33.97096 115.06839 2424 ft 96 kts 22°
2026-04-26 09:23 -33.96464 115.07092 2654 ft 96 kts 21°
2026-04-26 09:23 -33.95833 115.07342 2882 ft 96 kts 21°
2026-04-26 09:23 -33.95202 115.07591 3123 ft 95 kts 21°
2026-04-26 09:24 -33.94785 115.07755 3274 ft 95 kts 22°
2026-04-26 09:24 -33.94153 115.08003 3480 ft 97 kts 22°
2026-04-26 09:24 -33.93449 115.08283 3505 ft 116 kts 21°
2026-04-26 09:24 -33.92342 115.08720 3494 ft 134 kts 20°
2026-04-26 09:25 -33.91434 115.09075 3495 ft 140 kts 20°
2026-04-26 09:25 -33.90802 115.09321 3497 ft 143 kts 20°
2026-04-26 09:25 -33.89524 115.09818 3495 ft 148 kts 20°
2026-04-26 09:25 -33.88857 115.10079 3494 ft 150 kts 20°
2026-04-26 09:26 -33.87867 115.10466 3493 ft 150 kts 20°
2026-04-26 09:26 -33.86877 115.10853 3492 ft 150 kts 19°
2026-04-26 09:26 -33.85884 115.11240 3492 ft 150 kts 20°
2026-04-26 09:26 -33.84566 115.11755 3493 ft 151 kts 20°
2026-04-26 09:27 -33.83905 115.12013 3492 ft 150 kts 19°
2026-04-26 09:27 -33.82910 115.12401 3491 ft 150 kts 20°
2026-04-26 09:27 -33.81914 115.12791 3489 ft 151 kts 18°
2026-04-26 09:27 -33.80919 115.13179 3491 ft 150 kts 18°
2026-04-26 09:28 -33.79928 115.13565 3491 ft 150 kts 18°
2026-04-26 09:28 -33.78941 115.13950 3489 ft 149 kts 18°
2026-04-26 09:28 -33.77956 115.14334 3488 ft 149 kts 18°
2026-04-26 09:28 -33.76970 115.14719 3488 ft 149 kts 18°
2026-04-26 09:29 -33.75986 115.15103 3485 ft 149 kts 18°
2026-04-26 09:29 -33.74997 115.15488 3485 ft 149 kts 18°
2026-04-26 09:29 -33.74012 115.15873 3484 ft 149 kts 18°
2026-04-26 09:29 -33.73025 115.16257 3482 ft 149 kts 18°
2026-04-26 09:30 -33.72042 115.16640 3486 ft 148 kts 18°
2026-04-26 09:30 -33.71064 115.17021 3486 ft 148 kts 18°
2026-04-26 09:30 -33.70086 115.17401 3487 ft 148 kts 18°
2026-04-26 09:30 -33.69108 115.17782 3487 ft 148 kts 18°
2026-04-26 09:31 -33.68128 115.18163 3491 ft 148 kts 18°
2026-04-26 09:31 -33.67145 115.18546 3491 ft 149 kts 18°
2026-04-26 09:31 -33.66161 115.18929 3491 ft 149 kts 18°
2026-04-26 09:31 -33.65176 115.19312 3489 ft 148 kts 18°
2026-04-26 09:32 -33.64193 115.19694 3490 ft 148 kts 18°
2026-04-26 09:32 -33.63223 115.20071 3489 ft 148 kts 18°
2026-04-26 09:32 -33.62243 115.20452 3490 ft 148 kts 18°
2026-04-26 09:32 -33.61265 115.20832 3489 ft 148 kts 18°
2026-04-26 09:33 -33.60287 115.21211 3490 ft 148 kts 18°
2026-04-26 09:33 -33.59310 115.21591 3491 ft 148 kts 18°
2026-04-26 09:33 -33.58330 115.21971 3491 ft 148 kts 18°
2026-04-26 09:33 -33.57350 115.22352 3490 ft 148 kts 18°
2026-04-26 09:34 -33.56371 115.22731 3490 ft 148 kts 18°
2026-04-26 09:34 -33.55393 115.23111 3491 ft 148 kts 18°
2026-04-26 09:34 -33.54415 115.23491 3486 ft 148 kts 18°
2026-04-26 09:34 -33.53429 115.23873 3487 ft 149 kts 18°
2026-04-26 09:35 -33.52447 115.24253 3497 ft 151 kts 18°
2026-04-26 09:35 -33.51443 115.24643 3494 ft 152 kts 18°
2026-04-26 09:35 -33.50432 115.25034 3495 ft 153 kts 18°
2026-04-26 09:35 -33.49417 115.25428 3495 ft 153 kts 18°
2026-04-26 09:36 -33.48400 115.25821 3498 ft 154 kts 18°
2026-04-26 09:36 -33.47385 115.26215 3493 ft 153 kts 18°
2026-04-26 09:36 -33.46369 115.26608 3494 ft 153 kts 18°
2026-04-26 09:36 -33.45358 115.26999 3494 ft 153 kts 18°
2026-04-26 09:37 -33.44348 115.27390 3501 ft 152 kts 18°
2026-04-26 09:37 -33.43335 115.27782 3494 ft 153 kts 18°
2026-04-26 09:37 -33.42334 115.28169 3495 ft 153 kts 18°
2026-04-26 09:37 -33.41316 115.28562 3496 ft 154 kts 18°
2026-04-26 09:38 -33.40298 115.28956 3500 ft 154 kts 18°
2026-04-26 09:38 -33.39279 115.29350 3494 ft 154 kts 18°
2026-04-26 09:38 -33.38263 115.29742 3499 ft 153 kts 18°
2026-04-26 09:38 -33.37248 115.30134 3493 ft 153 kts 18°
2026-04-26 09:39 -33.36238 115.30524 3501 ft 153 kts 18°
2026-04-26 09:39 -33.35228 115.30914 3494 ft 152 kts 18°
2026-04-26 09:39 -33.34218 115.31304 3497 ft 152 kts 18°
2026-04-26 09:39 -33.33208 115.31694 3491 ft 153 kts 18°
2026-04-26 09:40 -33.32193 115.32085 3493 ft 153 kts 18°
2026-04-26 09:40 -33.31180 115.32476 3495 ft 153 kts 18°
2026-04-26 09:40 -33.30169 115.32866 3491 ft 152 kts 18°
2026-04-26 09:40 -33.29159 115.33253 3489 ft 152 kts 19°
2026-04-26 09:41 -33.28156 115.33641 3491 ft 151 kts 20°
2026-04-26 09:41 -33.27155 115.34028 3497 ft 152 kts 19°
2026-04-26 09:41 -33.26145 115.34417 3496 ft 153 kts 19°
2026-04-26 09:41 -33.25131 115.34807 3493 ft 153 kts 19°
2026-04-26 09:42 -33.24117 115.35198 3492 ft 153 kts 19°
2026-04-26 09:42 -33.23101 115.35589 3494 ft 153 kts 19°
2026-04-26 09:42 -33.22101 115.35974 3492 ft 152 kts 19°
2026-04-26 09:42 -33.21094 115.36361 3489 ft 152 kts 19°
2026-04-26 09:43 -33.20084 115.36749 3487 ft 154 kts 19°
2026-04-26 09:43 -33.19061 115.37143 3491 ft 155 kts 19°
2026-04-26 09:43 -33.18027 115.37540 3491 ft 156 kts 19°
2026-04-26 09:43 -33.16983 115.37942 3491 ft 159 kts 19°
2026-04-26 09:44 -33.15931 115.38346 3497 ft 159 kts 19°
2026-04-26 09:44 -33.14875 115.38751 3496 ft 159 kts 19°
2026-04-26 09:44 -33.13816 115.39158 3495 ft 160 kts 19°
2026-04-26 09:44 -33.12757 115.39565 3491 ft 160 kts 19°
2026-04-26 09:45 -33.11703 115.39969 3490 ft 159 kts 19°
2026-04-26 09:45 -33.10651 115.40374 3491 ft 159 kts 19°
2026-04-26 09:45 -33.09601 115.40776 3494 ft 158 kts 19°
2026-04-26 09:45 -33.08550 115.41180 3493 ft 159 kts 19°
2026-04-26 09:46 -33.07508 115.41579 3492 ft 159 kts 19°
2026-04-26 09:46 -33.06451 115.41983 3491 ft 159 kts 19°
2026-04-26 09:46 -33.05398 115.42387 3491 ft 159 kts 19°
2026-04-26 09:46 -33.04343 115.42792 3494 ft 159 kts 19°
2026-04-26 09:47 -33.03294 115.43195 3492 ft 158 kts 19°
2026-04-26 09:47 -33.02251 115.43594 3493 ft 158 kts 19°
2026-04-26 09:47 -33.01201 115.43997 3493 ft 158 kts 20°
2026-04-26 09:47 -33.00150 115.44400 3492 ft 159 kts 20°
2026-04-26 09:48 -32.99097 115.44802 3492 ft 159 kts 19°
2026-04-26 09:48 -32.98041 115.45203 3492 ft 159 kts 19°
2026-04-26 09:48 -32.96991 115.45605 3487 ft 158 kts 19°
2026-04-26 09:48 -32.95948 115.46004 3488 ft 157 kts 19°
2026-04-26 09:49 -32.94906 115.46399 3489 ft 157 kts 19°
2026-04-26 09:49 -32.93869 115.46798 3486 ft 156 kts 19°
2026-04-26 09:49 -32.92832 115.47197 3487 ft 157 kts 20°
2026-04-26 09:49 -32.91788 115.47596 3484 ft 158 kts 20°
2026-04-26 09:50 -32.90740 115.47996 3486 ft 158 kts 19°
2026-04-26 09:50 -32.89692 115.48397 3494 ft 158 kts 19°
2026-04-26 09:50 -32.88643 115.48798 3488 ft 158 kts 19°
2026-04-26 09:50 -32.87594 115.49197 3486 ft 158 kts 19°
2026-04-26 09:51 -32.86551 115.49597 3487 ft 158 kts 19°
2026-04-26 09:51 -32.85506 115.49994 3487 ft 157 kts 19°
2026-04-26 09:51 -32.84467 115.50390 3486 ft 157 kts 20°
2026-04-26 09:51 -32.83440 115.50783 3492 ft 157 kts 19°
2026-04-26 09:52 -32.82399 115.51177 3491 ft 158 kts 19°
2026-04-26 09:52 -32.80307 115.51975 3486 ft 158 kts 19°
2026-04-26 09:52 -32.79263 115.52370 3489 ft 157 kts 19°
2026-04-26 09:53 -32.78220 115.52768 3483 ft 157 kts 19°
2026-04-26 09:53 -32.77178 115.53167 3483 ft 158 kts 19°
2026-04-26 09:53 -32.76136 115.53565 3486 ft 157 kts 19°
2026-04-26 09:53 -32.75097 115.53960 3485 ft 156 kts 19°
2026-04-26 09:54 -32.74062 115.54352 3482 ft 156 kts 19°
2026-04-26 09:54 -32.73028 115.54746 3484 ft 156 kts 19°
2026-04-26 09:54 -32.71992 115.55141 3488 ft 157 kts 19°
2026-04-26 09:54 -32.70951 115.55536 3479 ft 157 kts 19°
2026-04-26 09:55 -32.69911 115.55932 3482 ft 157 kts 19°
2026-04-26 09:55 -32.68872 115.56327 3483 ft 157 kts 19°
2026-04-26 09:55 -32.67841 115.56716 3482 ft 159 kts 19°
2026-04-26 09:55 -32.66778 115.57124 3485 ft 158 kts 19°
2026-04-26 09:56 -32.65746 115.57515 3485 ft 157 kts 19°
2026-04-26 09:56 -32.64704 115.57909 3482 ft 157 kts 19°
2026-04-26 09:56 -32.63667 115.58304 3482 ft 157 kts 19°
2026-04-26 09:56 -32.62625 115.58697 3484 ft 157 kts 19°
2026-04-26 09:57 -32.61583 115.59092 3482 ft 157 kts 19°
2026-04-26 09:57 -32.60540 115.59488 3477 ft 156 kts 20°
2026-04-26 09:57 -32.59508 115.59879 3478 ft 156 kts 20°
2026-04-26 09:57 -32.58470 115.60273 3481 ft 157 kts 19°
2026-04-26 09:58 -32.57424 115.60669 3484 ft 158 kts 20°
2026-04-26 09:58 -32.56377 115.61066 3486 ft 158 kts 19°
2026-04-26 09:58 -32.55330 115.61463 3480 ft 158 kts 19°
2026-04-26 09:58 -32.54283 115.61859 3481 ft 158 kts 19°
2026-04-26 09:59 -32.53235 115.62258 3486 ft 158 kts 19°
2026-04-26 09:59 -32.52538 115.62522 3480 ft 159 kts 19°
2026-04-26 09:59 -32.51150 115.63044 3477 ft 157 kts 19°
2026-04-26 09:59 -32.50111 115.63438 3481 ft 157 kts 19°
2026-04-26 10:00 -32.49075 115.63830 3478 ft 156 kts 20°
2026-04-26 10:00 -32.48042 115.64224 3470 ft 155 kts 21°
2026-04-26 10:00 -32.47009 115.64615 3473 ft 157 kts 19°
2026-04-26 10:00 -32.45962 115.65004 3472 ft 158 kts 20°
2026-04-26 10:01 -32.44909 115.65402 3475 ft 159 kts 20°
2026-04-26 10:01 -32.43849 115.65804 3481 ft 161 kts 20°
2026-04-26 10:01 -32.42778 115.66209 3473 ft 162 kts 20°
2026-04-26 10:01 -32.41702 115.66615 3476 ft 162 kts 20°
2026-04-26 10:02 -32.40631 115.67020 3479 ft 162 kts 20°
2026-04-26 10:02 -32.39560 115.67425 3478 ft 162 kts 20°
2026-04-26 10:02 -32.38484 115.67830 3473 ft 162 kts 20°
2026-04-26 10:02 -32.37416 115.68234 3474 ft 161 kts 20°
2026-04-26 10:03 -32.36351 115.68636 3470 ft 160 kts 20°
2026-04-26 10:03 -32.35290 115.69035 3471 ft 160 kts 20°
2026-04-26 10:03 -32.34222 115.69437 3477 ft 161 kts 20°
2026-04-26 10:03 -32.33151 115.69841 3476 ft 162 kts 20°
2026-04-26 10:04 -32.32092 115.70240 3474 ft 162 kts 20°
2026-04-26 10:04 -32.31006 115.70650 3474 ft 162 kts 19°
2026-04-26 10:04 -32.29948 115.71049 3475 ft 162 kts 19°
2026-04-26 10:04 -32.28879 115.71451 3496 ft 161 kts 19°
2026-04-26 10:05 -32.27796 115.71857 3471 ft 162 kts 20°
2026-04-26 10:05 -32.26757 115.72249 3345 ft 156 kts 21°
2026-04-26 10:05 -32.25739 115.72632 3217 ft 152 kts 20°
2026-04-26 10:05 -32.24749 115.73005 3040 ft 146 kts 21°
2026-04-26 10:06 -32.23798 115.73363 2864 ft 141 kts 21°
2026-04-26 10:06 -32.22876 115.73709 2691 ft 137 kts 21°
2026-04-26 10:06 -32.21975 115.74047 2515 ft 135 kts 21°
2026-04-26 10:06 -32.21082 115.74382 2345 ft 134 kts 21°
2026-04-26 10:07 -32.20193 115.74717 2175 ft 134 kts 21°
2026-04-26 10:07 -32.19301 115.75052 1998 ft 134 kts 20°
2026-04-26 10:07 -32.18418 115.75383 1825 ft 133 kts 21°
2026-04-26 10:07 -32.17535 115.75714 1647 ft 132 kts 21°
2026-04-26 10:08 -32.16656 115.76045 1501 ft 131 kts 22°
2026-04-26 10:08 -32.15803 115.76363 1508 ft 128 kts 21°
2026-04-26 10:08 -32.14970 115.76726 1507 ft 127 kts 33°
2026-04-26 10:08 -32.14268 115.77345 1513 ft 126 kts 42°
2026-04-26 10:09 -32.13578 115.77997 1510 ft 128 kts 42°
2026-04-26 10:09 -32.13117 115.78433 1513 ft 128 kts 42°
2026-04-26 10:09 -32.12187 115.79307 1502 ft 128 kts 42°
2026-04-26 10:09 -32.11495 115.79958 1505 ft 127 kts 43°
2026-04-26 10:10 -32.10807 115.80605 1506 ft 126 kts 42°
2026-04-26 10:10 -32.10118 115.81260 1506 ft 127 kts 45°
2026-04-26 10:10 -32.09633 115.82114 1504 ft 125 kts 72°
2026-04-26 10:10 -32.09334 115.83094 1337 ft 128 kts 71°
2026-04-26 10:11 -32.09027 115.84025 1326 ft 110 kts 70°
2026-04-26 10:11 -32.08827 115.84540 1279 ft 98 kts 70°
2026-04-26 10:11 -32.08511 115.85512 1093 ft 93 kts 77°
2026-04-26 10:11 -32.08365 115.85987 1012 ft 93 kts 74°
2026-04-26 10:12 -32.08000 115.86973 779 ft 105 kts 62°
2026-04-26 10:12 -32.07634 115.87709 814 ft 108 kts 60°
2026-04-26 10:12 -32.07256 115.88462 864 ft 105 kts 64°
2026-04-26 10:12 -32.07006 115.88964 873 ft 106 kts 64°
2026-04-26 10:13 -32.06682 115.89713 933 ft 99 kts 85°
2026-04-26 10:13 -32.07064 115.90581 920 ft 96 kts 142°
2026-04-26 10:13 -32.07456 115.90832 908 ft 90 kts 165°
2026-04-26 10:13 -32.08012 115.90590 803 ft 93 kts 216°
2026-04-26 10:14 -32.08441 115.90022 613 ft 91 kts 231°
2026-04-26 10:14 -32.08802 115.89436 427 ft 85 kts 232°
2026-04-26 10:14 -32.09139 115.88872 250 ft 83 kts 232°
2026-04-26 10:14 -32.09467 115.88337 106 ft 72 kts 232°
2026-04-26 10:15 -32.09690 115.87974 95 ft 39 kts 234°
2026-04-26 10:15 -32.09810 115.87769 95 ft 20 kts 239°
2026-04-26 10:15 -32.09789 115.87679 95 ft 13 kts 324°
2026-04-26 10:15 -32.09796 115.87601 95 ft 11 kts 236°
2026-04-26 10:16 -32.09834 115.87538 95 ft 8 kts 234°
2026-04-26 10:16 -32.09883 115.87458 95 ft 15 kts 236°
2026-04-26 10:16 -32.09836 115.87388 95 ft 13 kts 309°
2026-04-26 10:16 -32.09835 115.87299 95 ft 10 kts 205°
2026-04-26 10:17 -32.09879 115.87276 95 ft 2 kts 204°